Time,TemperatureF,DewpointF,PressureIn,WindDirection,WindDirectionDegrees,WindSpeedMPH,WindSpeedGustMPH,Humidity,HourlyPrecipIn,Conditions,Clouds,dailyrainin,SoftwareType,DateUTC
2013-08-22 00:01:00,55.0,43.0,25.76,SE,135,1.6,3.0,63,0.00,,,0.00,Rainwise IP-100,2013-08-22 07:01:00,
2013-08-22 00:06:00,55.4,42.0,25.76,SE,135,2.6,3.0,61,0.00,,,0.00,Rainwise IP-100,2013-08-22 07:06:00,
2013-08-22 00:11:00,55.5,42.0,25.77,SE,135,1.6,3.0,60,0.00,,,0.00,Rainwise IP-100,2013-08-22 07:11:00,
2013-08-22 00:16:00,55.3,41.0,25.76,ESE,112,0.0,2.0,60,0.00,,,0.00,Rainwise IP-100,2013-08-22 07:16:00,
2013-08-22 00:21:00,55.3,42.0,25.77,East,90,0.0,2.0,61,0.00,,,0.00,Rainwise IP-100,2013-08-22 07:21:00,
2013-08-22 00:26:00,55.4,41.0,25.77,ESE,112,0.0,3.0,60,0.00,,,0.00,Rainwise IP-100,2013-08-22 07:26:00,
2013-08-22 00:31:00,55.5,42.0,25.76,ESE,112,0.0,2.0,59,0.00,,,0.00,Rainwise IP-100,2013-08-22 07:31:00,
2013-08-22 00:36:00,55.4,41.0,25.76,SE,135,2.1,4.0,59,0.00,,,0.00,Rainwise IP-100,2013-08-22 07:36:00,
2013-08-22 00:41:00,55.2,41.0,25.76,ESE,112,0.0,3.0,60,0.00,,,0.00,Rainwise IP-100,2013-08-22 07:41:00,
2013-08-22 00:46:00,55.3,41.0,25.76,ESE,112,1.6,1.6,59,0.00,,,0.00,Rainwise IP-100,2013-08-22 07:46:00,
2013-08-22 00:51:00,55.5,41.0,25.76,ESE,112,2.1,2.1,58,0.00,,,0.00,Rainwise IP-100,2013-08-22 07:51:00,
2013-08-22 00:56:00,55.5,41.0,25.76,ESE,112,0.0,2.0,57,0.00,,,0.00,Rainwise IP-100,2013-08-22 07:56:00,
2013-08-22 01:01:00,55.2,40.0,25.76,ESE,112,1.6,2.0,57,0.00,,,0.00,Rainwise IP-100,2013-08-22 08:01:00,
2013-08-22 01:06:00,55.1,40.0,25.76,ESE,112,1.6,2.0,57,0.00,,,0.00,Rainwise IP-100,2013-08-22 08:06:00,
2013-08-22 01:11:00,55.0,40.0,25.76,ESE,112,0.0,2.0,57,0.00,,,0.00,Rainwise IP-100,2013-08-22 08:11:00,
2013-08-22 01:16:00,54.9,40.0,25.76,ESE,112,0.0,2.0,57,0.00,,,0.00,Rainwise IP-100,2013-08-22 08:16:00,
2013-08-22 01:21:00,55.0,40.0,25.76,SSE,157,1.4,1.4,57,0.00,,,0.00,Rainwise IP-100,2013-08-22 08:21:00,
2013-08-22 01:26:00,54.9,40.0,25.76,ESE,112,0.0,3.0,57,0.00,,,0.00,Rainwise IP-100,2013-08-22 08:26:00,
2013-08-22 01:31:00,54.7,40.0,25.76,SE,135,0.0,3.0,57,0.00,,,0.00,Rainwise IP-100,2013-08-22 08:31:00,
2013-08-22 01:36:00,54.9,39.0,25.76,ESE,112,2.8,3.0,55,0.00,,,0.00,Rainwise IP-100,2013-08-22 08:36:00,
2013-08-22 01:41:00,55.1,39.0,25.76,ESE,112,2.1,3.0,54,0.00,,,0.00,Rainwise IP-100,2013-08-22 08:41:00,
2013-08-22 01:46:00,54.9,39.0,25.75,ESE,112,1.2,3.0,55,0.00,,,0.00,Rainwise IP-100,2013-08-22 08:46:00,
2013-08-22 01:51:00,54.8,39.0,25.75,SE,135,0.0,3.0,55,0.00,,,0.00,Rainwise IP-100,2013-08-22 08:51:00,
2013-08-22 01:56:00,54.7,39.0,25.75,ESE,112,0.0,3.0,55,0.00,,,0.00,Rainwise IP-100,2013-08-22 08:56:00,
2013-08-22 02:01:00,54.6,39.0,25.75,SE,135,1.4,2.0,55,0.00,,,0.00,Rainwise IP-100,2013-08-22 09:01:00,
2013-08-22 02:06:00,54.7,39.0,25.75,ESE,112,2.8,3.0,55,0.00,,,0.00,Rainwise IP-100,2013-08-22 09:06:00,
2013-08-22 02:11:00,55.0,38.0,25.75,South,180,0.0,4.0,53,0.00,,,0.00,Rainwise IP-100,2013-08-22 09:11:00,
2013-08-22 02:16:00,54.8,38.0,25.75,SE,135,2.1,3.0,54,0.00,,,0.00,Rainwise IP-100,2013-08-22 09:16:00,
2013-08-22 02:21:00,54.5,39.0,25.75,SE,135,2.8,3.0,55,0.00,,,0.00,Rainwise IP-100,2013-08-22 09:21:00,
2013-08-22 02:26:00,54.2,39.0,25.75,SE,135,1.9,3.0,56,0.00,,,0.00,Rainwise IP-100,2013-08-22 09:26:00,
2013-08-22 02:31:00,54.2,39.0,25.75,SE,135,2.3,3.0,56,0.00,,,0.00,Rainwise IP-100,2013-08-22 09:31:00,
2013-08-22 02:36:00,54.1,39.0,25.75,SE,135,2.1,3.0,56,0.00,,,0.00,Rainwise IP-100,2013-08-22 09:36:00,
2013-08-22 02:41:00,54.2,39.0,25.74,SE,135,3.3,3.3,56,0.00,,,0.00,Rainwise IP-100,2013-08-22 09:41:00,
2013-08-22 02:46:00,54.7,39.0,25.74,SE,135,1.9,4.0,55,0.00,,,0.00,Rainwise IP-100,2013-08-22 09:46:00,
2013-08-22 02:51:00,55.5,38.0,25.75,SSE,157,1.9,4.0,52,0.00,,,0.00,Rainwise IP-100,2013-08-22 09:51:00,
2013-08-22 02:56:00,56.1,38.0,25.75,SE,135,0.0,3.0,51,0.00,,,0.00,Rainwise IP-100,2013-08-22 09:56:00,
2013-08-22 03:01:00,56.2,38.0,25.74,SE,135,1.6,3.0,52,0.00,,,0.00,Rainwise IP-100,2013-08-22 10:01:00,
2013-08-22 03:06:00,55.9,39.0,25.74,SSE,157,2.6,3.0,54,0.00,,,0.00,Rainwise IP-100,2013-08-22 10:06:00,
2013-08-22 03:11:00,55.1,40.0,25.74,SE,135,0.0,3.0,56,0.00,,,0.00,Rainwise IP-100,2013-08-22 10:11:00,
2013-08-22 03:16:00,54.8,40.0,25.74,SE,135,1.2,1.2,57,0.00,,,0.00,Rainwise IP-100,2013-08-22 10:16:00,
2013-08-22 03:21:00,54.8,40.0,25.74,SE,135,1.2,2.0,58,0.00,,,0.00,Rainwise IP-100,2013-08-22 10:21:00,
2013-08-22 03:26:00,55.0,40.0,25.75,SE,135,0.0,3.0,56,0.00,,,0.00,Rainwise IP-100,2013-08-22 10:26:00,
2013-08-22 03:31:00,55.4,39.0,25.75,SE,135,0.0,4.0,54,0.00,,,0.00,Rainwise IP-100,2013-08-22 10:31:00,
2013-08-22 03:36:00,55.6,39.0,25.74,SE,135,0.0,3.0,53,0.00,,,0.00,Rainwise IP-100,2013-08-22 10:36:00,
2013-08-22 03:42:00,55.6,39.0,25.74,South,180,0.0,2.0,54,0.00,,,0.00,Rainwise IP-100,2013-08-22 10:42:00,
2013-08-22 03:47:00,55.3,39.0,25.74,SSE,157,0.0,1.0,55,0.00,,,0.00,Rainwise IP-100,2013-08-22 10:47:00,
2013-08-22 05:27:00,52.0,38.0,25.73,SSW,202,0.0,1.0,60,0.00,,,0.00,Rainwise IP-100,2013-08-22 12:27:00,
2013-08-22 05:32:00,51.8,38.0,25.73,SSE,157,0.0,1.0,60,0.00,,,0.00,Rainwise IP-100,2013-08-22 12:32:00,
2013-08-22 05:37:00,51.7,38.0,25.73,SSW,202,0.0,2.0,59,0.00,,,0.00,Rainwise IP-100,2013-08-22 12:37:00,
2013-08-22 05:42:00,51.5,38.0,25.73,South,180,0.0,2.0,60,0.00,,,0.00,Rainwise IP-100,2013-08-22 12:42:00,
2013-08-22 05:47:00,51.5,39.0,25.73,South,180,1.4,1.4,61,0.00,,,0.00,Rainwise IP-100,2013-08-22 12:47:00,
2013-08-22 05:52:00,51.4,38.0,25.73,SSW,202,0.0,3.0,61,0.00,,,0.00,Rainwise IP-100,2013-08-22 12:52:00,
2013-08-22 05:57:00,51.2,38.0,25.73,SE,135,1.2,2.0,61,0.00,,,0.00,Rainwise IP-100,2013-08-22 12:57:00,
2013-08-22 06:01:00,51.1,38.0,25.72,SE,135,0.0,2.0,60,0.00,,,0.00,Rainwise IP-100,2013-08-22 13:01:00,
2013-08-22 06:06:00,51.2,38.0,25.72,SE,135,2.3,3.0,60,0.00,,,0.00,Rainwise IP-100,2013-08-22 13:06:00,
2013-08-22 06:11:00,51.6,39.0,25.72,SSE,157,0.0,3.0,61,0.00,,,0.00,Rainwise IP-100,2013-08-22 13:11:00,
2013-08-22 06:16:00,52.3,38.0,25.72,ESE,112,1.6,2.0,60,0.00,,,0.00,Rainwise IP-100,2013-08-22 13:16:00,
2013-08-22 06:21:00,52.6,38.0,25.72,ESE,112,0.0,3.0,58,0.00,,,0.00,Rainwise IP-100,2013-08-22 13:21:00,
2013-08-22 06:26:00,52.6,38.0,25.72,SE,135,0.0,1.0,58,0.00,,,0.00,Rainwise IP-100,2013-08-22 13:26:00,
2013-08-22 06:31:00,52.2,38.0,25.72,SE,135,1.9,2.0,59,0.00,,,0.00,Rainwise IP-100,2013-08-22 13:31:00,
2013-08-22 06:36:00,51.9,39.0,25.72,SE,135,1.9,2.0,61,0.00,,,0.00,Rainwise IP-100,2013-08-22 13:36:00,
2013-08-22 06:41:00,51.8,38.0,25.72,SE,135,1.2,2.0,60,0.00,,,0.00,Rainwise IP-100,2013-08-22 13:41:00,
2013-08-22 06:46:00,52.0,38.0,25.72,SE,135,0.0,2.0,60,0.00,,,0.00,Rainwise IP-100,2013-08-22 13:46:00,
2013-08-22 06:51:00,52.0,38.0,25.73,SE,135,1.6,2.0,60,0.00,,,0.00,Rainwise IP-100,2013-08-22 13:51:00,
2013-08-22 06:56:00,51.8,39.0,25.72,SE,135,1.6,2.0,62,0.00,,,0.00,Rainwise IP-100,2013-08-22 13:56:00,
2013-08-22 07:01:00,51.5,40.0,25.73,SE,135,2.1,2.1,64,0.00,,,0.00,Rainwise IP-100,2013-08-22 14:01:00,
2013-08-22 07:06:00,51.6,40.0,25.72,ENE,67,0.0,2.0,64,0.00,,,0.00,Rainwise IP-100,2013-08-22 14:06:00,
2013-08-22 07:11:00,51.8,40.0,25.72,ESE,112,1.9,0.0,65,0.00,,,0.00,Rainwise IP-100,2013-08-22 14:11:00,
2013-08-22 07:16:00,51.7,40.0,25.73,ESE,112,0.0,3.0,65,0.00,,,0.00,Rainwise IP-100,2013-08-22 14:16:00,
2013-08-22 07:21:00,51.7,40.0,25.72,ESE,112,1.4,2.0,65,0.00,,,0.00,Rainwise IP-100,2013-08-22 14:21:00,
2013-08-22 07:26:00,51.6,41.0,25.72,ESE,112,1.4,2.0,67,0.00,,,0.00,Rainwise IP-100,2013-08-22 14:26:00,
2013-08-22 07:31:00,51.7,41.0,25.73,SSE,157,1.6,2.0,66,0.00,,,0.00,Rainwise IP-100,2013-08-22 14:31:00,
2013-08-22 07:36:00,51.9,40.0,25.72,SSE,157,1.9,2.0,65,0.00,,,0.00,Rainwise IP-100,2013-08-22 14:36:00,
2013-08-22 07:41:00,52.1,40.0,25.73,SE,135,2.3,2.3,64,0.00,,,0.00,Rainwise IP-100,2013-08-22 14:41:00,
2013-08-22 07:46:00,52.3,40.0,25.73,SE,135,1.2,2.0,65,0.00,,,0.00,Rainwise IP-100,2013-08-22 14:46:00,
2013-08-22 07:51:00,52.4,40.0,25.73,SE,135,1.2,3.0,65,0.00,,,0.00,Rainwise IP-100,2013-08-22 14:51:00,
2013-08-22 07:56:00,52.2,41.0,25.73,SE,135,0.0,3.0,67,0.00,,,0.00,Rainwise IP-100,2013-08-22 14:56:00,
2013-08-22 08:01:00,52.1,42.0,25.73,SE,135,1.4,3.0,69,0.00,,,0.00,Rainwise IP-100,2013-08-22 15:01:00,
2013-08-22 08:06:00,52.7,42.0,25.73,SE,135,0.0,3.0,67,0.00,,,0.00,Rainwise IP-100,2013-08-22 15:06:00,
2013-08-22 08:11:00,53.5,41.0,25.73,ESE,112,2.1,3.0,64,0.00,,,0.00,Rainwise IP-100,2013-08-22 15:11:00,
2013-08-22 08:16:00,54.2,41.0,25.73,ESE,112,3.3,3.3,62,0.00,,,0.00,Rainwise IP-100,2013-08-22 15:16:00,
2013-08-22 08:21:00,54.6,41.0,25.73,ESE,112,1.6,3.0,61,0.00,,,0.00,Rainwise IP-100,2013-08-22 15:21:00,
2013-08-22 08:26:00,54.9,42.0,25.72,ESE,112,1.4,2.0,62,0.00,,,0.00,Rainwise IP-100,2013-08-22 15:26:00,
2013-08-22 08:31:00,55.3,43.0,25.72,ESE,112,1.4,2.0,63,0.00,,,0.00,Rainwise IP-100,2013-08-22 15:31:00,
2013-08-22 08:36:00,55.5,44.0,25.72,ESE,112,0.0,2.0,64,0.00,,,0.00,Rainwise IP-100,2013-08-22 15:36:00,
2013-08-22 08:41:00,55.8,44.0,25.72,SE,135,1.6,3.0,64,0.00,,,0.00,Rainwise IP-100,2013-08-22 15:41:00,
2013-08-22 08:46:00,56.1,44.0,25.72,SE,135,3.0,3.0,65,0.00,,,0.00,Rainwise IP-100,2013-08-22 15:46:00,
2013-08-22 08:51:00,56.5,45.0,25.72,ESE,112,2.3,3.0,65,0.00,,,0.00,Rainwise IP-100,2013-08-22 15:51:00,
2013-08-22 08:56:00,57.1,46.0,25.72,ESE,112,1.9,2.0,65,0.00,,,0.00,Rainwise IP-100,2013-08-22 15:56:00,
2013-08-22 09:01:00,57.9,46.0,25.72,SE,135,1.6,3.0,63,0.00,,,0.00,Rainwise IP-100,2013-08-22 16:01:00,
2013-08-22 09:06:00,58.3,46.0,25.73,ESE,112,2.8,3.0,63,0.00,,,0.00,Rainwise IP-100,2013-08-22 16:06:00,
2013-08-22 09:11:00,58.8,47.0,25.72,ESE,112,3.3,3.3,63,0.00,,,0.00,Rainwise IP-100,2013-08-22 16:11:00,
2013-08-22 09:16:00,59.2,46.0,25.73,ESE,112,1.9,3.0,61,0.00,,,0.00,Rainwise IP-100,2013-08-22 16:16:00,
2013-08-22 09:21:00,59.1,46.0,25.72,SE,135,1.9,3.0,61,0.00,,,0.00,Rainwise IP-100,2013-08-22 16:21:00,
2013-08-22 09:26:00,59.3,46.0,25.73,ESE,112,2.1,2.1,61,0.00,,,0.00,Rainwise IP-100,2013-08-22 16:26:00,
2013-08-22 09:31:00,60.3,46.0,25.72,ESE,112,2.1,2.1,59,0.00,,,0.00,Rainwise IP-100,2013-08-22 16:31:00,
2013-08-22 09:36:00,61.9,46.0,25.73,ESE,112,0.0,2.0,55,0.00,,,0.00,Rainwise IP-100,2013-08-22 16:36:00,
2013-08-22 09:41:00,63.4,45.0,25.72,East,90,0.0,2.0,51,0.00,,,0.00,Rainwise IP-100,2013-08-22 16:41:00,
2013-08-22 09:46:00,64.5,45.0,25.73,SE,135,0.0,2.0,49,0.00,,,0.00,Rainwise IP-100,2013-08-22 16:46:00,
2013-08-22 09:51:00,65.1,45.0,25.73,ESE,112,0.0,2.0,49,0.00,,,0.00,Rainwise IP-100,2013-08-22 16:51:00,
2013-08-22 09:56:00,65.8,46.0,25.72,ESE,112,1.4,2.0,49,0.00,,,0.00,Rainwise IP-100,2013-08-22 16:56:00,
2013-08-22 10:01:00,66.8,47.0,25.72,ESE,112,0.0,2.0,48,0.00,,,0.00,Rainwise IP-100,2013-08-22 17:01:00,
2013-08-22 10:06:00,67.8,46.0,25.72,ESE,112,0.0,1.0,45,0.00,,,0.00,Rainwise IP-100,2013-08-22 17:06:00,
2013-08-22 10:11:00,69.1,45.0,25.72,ESE,112,0.0,1.0,42,0.00,,,0.00,Rainwise IP-100,2013-08-22 17:11:00,
2013-08-22 10:16:00,70.1,45.0,25.72,ESE,112,0.0,2.0,40,0.00,,,0.00,Rainwise IP-100,2013-08-22 17:16:00,
2013-08-22 10:21:00,71.0,45.0,25.72,ESE,112,1.2,0.0,39,0.00,,,0.00,Rainwise IP-100,2013-08-22 17:21:00,
2013-08-22 10:26:00,71.9,44.0,25.72,ESE,112,0.0,1.0,37,0.00,,,0.00,Rainwise IP-100,2013-08-22 17:26:00,
2013-08-22 10:31:00,71.9,44.0,25.72,ESE,112,0.0,2.0,37,0.00,,,0.00,Rainwise IP-100,2013-08-22 17:31:00,
2013-08-22 10:36:00,71.7,44.0,25.71,ESE,112,0.0,1.0,37,0.00,,,0.00,Rainwise IP-100,2013-08-22 17:36:00,
2013-08-22 10:41:00,71.3,43.0,25.72,ESE,112,0.0,2.0,37,0.00,,,0.00,Rainwise IP-100,2013-08-22 17:41:00,
2013-08-22 10:46:00,70.5,43.0,25.71,ENE,67,0.0,1.0,37,0.00,,,0.00,Rainwise IP-100,2013-08-22 17:46:00,
2013-08-22 10:51:00,69.9,43.0,25.71,ESE,112,0.0,6.0,38,0.00,,,0.00,Rainwise IP-100,2013-08-22 17:51:00,
2013-08-22 10:56:00,69.5,43.0,25.71,SSW,202,0.0,5.0,39,0.00,,,0.00,Rainwise IP-100,2013-08-22 17:56:00,
2013-08-22 11:01:00,69.5,43.0,25.71,ESE,112,0.0,2.0,39,0.00,,,0.00,Rainwise IP-100,2013-08-22 18:01:00,
2013-08-22 11:06:00,69.9,45.0,25.72,ESE,112,0.0,1.0,40,0.00,,,0.00,Rainwise IP-100,2013-08-22 18:06:00,
2013-08-22 11:11:00,70.7,44.0,25.72,ENE,67,1.4,3.0,39,0.00,,,0.00,Rainwise IP-100,2013-08-22 18:11:00,
2013-08-22 11:16:00,71.0,41.0,25.71,ESE,112,1.6,3.0,34,0.00,,,0.00,Rainwise IP-100,2013-08-22 18:16:00,
2013-08-22 11:21:00,70.9,41.0,25.72,ESE,112,0.0,4.0,34,0.00,,,0.00,Rainwise IP-100,2013-08-22 18:21:00,
2013-08-22 11:26:00,70.8,41.0,25.71,SE,135,2.1,4.0,34,0.00,,,0.00,Rainwise IP-100,2013-08-22 18:26:00,
2013-08-22 11:31:00,71.0,42.0,25.71,SSW,202,1.4,3.0,35,0.00,,,0.00,Rainwise IP-100,2013-08-22 18:31:00,
2013-08-22 11:36:00,71.6,40.0,25.71,SSE,157,1.4,6.0,32,0.00,,,0.00,Rainwise IP-100,2013-08-22 18:36:00,
2013-08-22 11:41:00,72.7,38.0,25.71,South,180,0.0,4.0,29,0.00,,,0.00,Rainwise IP-100,2013-08-22 18:41:00,
2013-08-22 11:46:00,73.9,41.0,25.72,ESE,112,1.9,4.0,30,0.00,,,0.00,Rainwise IP-100,2013-08-22 18:46:00,
2013-08-22 11:51:00,75.0,39.0,25.71,ESE,112,0.0,3.0,27,0.00,,,0.00,Rainwise IP-100,2013-08-22 18:51:00,
2013-08-22 11:56:00,75.3,37.0,25.71,NW,315,0.0,6.0,25,0.00,,,0.00,Rainwise IP-100,2013-08-22 18:56:00,
2013-08-22 12:01:00,75.4,36.0,25.70,South,180,1.2,4.0,24,0.00,,,0.00,Rainwise IP-100,2013-08-22 19:01:00,
2013-08-22 12:06:00,75.6,36.0,25.71,NNW,337,2.3,4.0,24,0.00,,,0.00,Rainwise IP-100,2013-08-22 19:06:00,
2013-08-22 12:11:00,76.2,36.0,25.70,SSW,202,0.0,4.0,23,0.00,,,0.00,Rainwise IP-100,2013-08-22 19:11:00,
2013-08-22 12:16:00,76.3,37.0,25.70,NNE,22,0.0,6.0,24,0.00,,,0.00,Rainwise IP-100,2013-08-22 19:16:00,
2013-08-22 12:21:00,75.9,38.0,25.70,SSW,202,5.8,8.0,26,0.00,,,0.00,Rainwise IP-100,2013-08-22 19:21:00,
2013-08-22 12:26:00,75.9,38.0,25.70,SSW,202,2.3,7.0,25,0.00,,,0.00,Rainwise IP-100,2013-08-22 19:26:00,
2013-08-22 12:31:00,75.8,35.0,25.70,SW,225,4.0,7.0,23,0.00,,,0.00,Rainwise IP-100,2013-08-22 19:31:00,
2013-08-22 12:36:00,76.0,35.0,25.70,SSW,202,4.0,6.0,22,0.00,,,0.00,Rainwise IP-100,2013-08-22 19:36:00,
2013-08-22 12:41:00,75.9,35.0,25.70,North,360,0.0,8.0,22,0.00,,,0.00,Rainwise IP-100,2013-08-22 19:41:00,
2013-08-22 12:46:00,75.8,35.0,25.69,SW,225,2.6,4.0,23,0.00,,,0.00,Rainwise IP-100,2013-08-22 19:46:00,
2013-08-22 12:51:00,76.0,36.0,25.69,SSW,202,1.9,6.0,23,0.00,,,0.00,Rainwise IP-100,2013-08-22 19:51:00,
2013-08-22 12:56:00,75.9,37.0,25.70,SSW,202,1.6,7.0,24,0.00,,,0.00,Rainwise IP-100,2013-08-22 19:56:00,
2013-08-22 13:01:00,75.6,36.0,25.70,ESE,112,0.0,6.0,24,0.00,,,0.00,Rainwise IP-100,2013-08-22 20:01:00,
2013-08-22 13:06:00,75.5,37.0,25.70,SSE,157,3.0,4.0,25,0.00,,,0.00,Rainwise IP-100,2013-08-22 20:06:00,
2013-08-22 13:11:00,75.6,37.0,25.69,SSW,202,6.1,7.0,25,0.00,,,0.00,Rainwise IP-100,2013-08-22 20:11:00,
2013-08-22 13:16:00,75.6,36.0,25.69,SW,225,4.9,6.0,24,0.00,,,0.00,Rainwise IP-100,2013-08-22 20:16:00,
2013-08-22 13:21:00,75.9,37.0,25.70,SSW,202,0.0,8.0,24,0.00,,,0.00,Rainwise IP-100,2013-08-22 20:21:00,
2013-08-22 13:26:00,76.5,37.0,25.70,SW,225,4.9,4.9,24,0.00,,,0.00,Rainwise IP-100,2013-08-22 20:26:00,
2013-08-22 13:31:00,76.7,37.0,25.70,SSW,202,1.4,7.0,24,0.00,,,0.00,Rainwise IP-100,2013-08-22 20:31:00,
2013-08-22 13:36:00,76.6,36.0,25.70,SSW,202,1.2,6.0,23,0.00,,,0.00,Rainwise IP-100,2013-08-22 20:36:00,
2013-08-22 13:41:00,76.7,35.0,25.69,SW,225,5.4,5.4,22,0.00,,,0.00,Rainwise IP-100,2013-08-22 20:41:00,
2013-08-22 13:46:00,76.5,36.0,25.69,SSW,202,3.5,5.0,23,0.00,,,0.00,Rainwise IP-100,2013-08-22 20:46:00,
2013-08-22 13:51:00,76.0,38.0,25.70,SSW,202,8.4,10.0,25,0.00,,,0.00,Rainwise IP-100,2013-08-22 20:51:00,
2013-08-22 13:56:00,75.5,36.0,25.70,SSE,157,3.3,14.0,24,0.00,,,0.00,Rainwise IP-100,2013-08-22 20:56:00,
2013-08-22 14:01:00,75.1,36.0,25.70,SSW,202,3.7,9.0,24,0.00,,,0.00,Rainwise IP-100,2013-08-22 21:01:00,
2013-08-22 14:06:00,75.0,36.0,25.70,ENE,67,0.0,11.0,24,0.00,,,0.00,Rainwise IP-100,2013-08-22 21:06:00,
2013-08-22 14:11:00,75.3,37.0,25.70,SSW,202,6.3,10.0,25,0.00,,,0.00,Rainwise IP-100,2013-08-22 21:11:00,
2013-08-22 14:16:00,75.8,37.0,25.70,SSW,202,5.8,11.0,25,0.00,,,0.00,Rainwise IP-100,2013-08-22 21:16:00,
2013-08-22 14:21:00,75.9,38.0,25.70,SSE,157,1.9,10.0,25,0.00,,,0.00,Rainwise IP-100,2013-08-22 21:21:00,
2013-08-22 14:26:00,75.9,38.0,25.70,ESE,112,0.0,4.0,25,0.00,,,0.00,Rainwise IP-100,2013-08-22 21:26:00,
2013-08-22 14:31:00,75.7,37.0,25.70,SSW,202,0.0,5.0,25,0.00,,,0.00,Rainwise IP-100,2013-08-22 21:31:00,
2013-08-22 14:36:00,75.3,37.0,25.70,SSW,202,2.1,6.0,25,0.00,,,0.00,Rainwise IP-100,2013-08-22 21:36:00,
2013-08-22 14:41:00,74.9,37.0,25.70,SSW,202,0.0,8.0,25,0.00,,,0.00,Rainwise IP-100,2013-08-22 21:41:00,
2013-08-22 14:46:00,74.6,38.0,25.70,SSW,202,1.6,7.0,26,0.00,,,0.00,Rainwise IP-100,2013-08-22 21:46:00,
2013-08-22 14:51:00,74.4,39.0,25.70,SSE,157,1.6,3.0,28,0.00,,,0.00,Rainwise IP-100,2013-08-22 21:51:00,
2013-08-22 14:56:00,73.9,40.0,25.70,WSW,247,5.6,5.6,29,0.00,,,0.00,Rainwise IP-100,2013-08-22 21:56:00,
2013-08-22 15:01:00,73.5,39.0,25.70,ENE,67,0.0,5.0,29,0.00,,,0.00,Rainwise IP-100,2013-08-22 22:01:00,
2013-08-22 15:06:00,73.1,39.0,25.70,East,90,0.0,3.0,29,0.00,,,0.00,Rainwise IP-100,2013-08-22 22:06:00,
2013-08-22 15:11:00,72.4,39.0,25.70,ESE,112,0.0,2.0,30,0.00,,,0.00,Rainwise IP-100,2013-08-22 22:11:00,
2013-08-22 15:16:00,71.8,40.0,25.69,ESE,112,0.0,2.0,32,0.00,,,0.00,Rainwise IP-100,2013-08-22 22:16:00,
2013-08-22 15:21:00,71.4,40.0,25.69,ESE,112,0.0,1.0,33,0.00,,,0.00,Rainwise IP-100,2013-08-22 22:21:00,
2013-08-22 15:26:00,71.0,42.0,25.69,ESE,112,0.0,1.0,36,0.00,,,0.00,Rainwise IP-100,2013-08-22 22:26:00,
2013-08-22 15:31:00,70.5,44.0,25.69,ESE,112,0.0,2.0,39,0.00,,,0.00,Rainwise IP-100,2013-08-22 22:31:00,
2013-08-22 15:36:00,70.4,44.0,25.69,NNE,22,2.1,3.0,38,0.00,,,0.00,Rainwise IP-100,2013-08-22 22:36:00,
2013-08-22 15:41:00,70.5,42.0,25.70,ESE,112,0.0,2.0,36,0.00,,,0.00,Rainwise IP-100,2013-08-22 22:41:00,
2013-08-22 15:46:00,70.3,42.0,25.70,NW,315,1.2,4.0,37,0.00,,,0.00,Rainwise IP-100,2013-08-22 22:46:00,
2013-08-22 15:51:00,69.8,45.0,25.70,SW,225,0.0,3.0,41,0.00,,,0.00,Rainwise IP-100,2013-08-22 22:51:00,
2013-08-22 15:56:00,69.0,46.0,25.70,SE,135,2.1,4.0,44,0.00,,,0.00,Rainwise IP-100,2013-08-22 22:56:00,
2013-08-22 16:01:00,68.1,45.0,25.70,ESE,112,1.9,8.0,44,0.00,,,0.00,Rainwise IP-100,2013-08-22 23:01:00,
2013-08-22 16:06:00,66.9,46.0,25.69,SE,135,5.4,7.0,46,0.00,,,0.00,Rainwise IP-100,2013-08-22 23:06:00,
2013-08-22 16:11:00,65.7,45.0,25.68,ESE,112,1.4,8.0,48,0.00,,,0.00,Rainwise IP-100,2013-08-22 23:11:00,
2013-08-22 16:16:00,65.3,45.0,25.68,NE,45,0.0,4.0,49,0.00,,,0.00,Rainwise IP-100,2013-08-22 23:16:00,
2013-08-22 16:21:00,65.1,47.0,25.68,ESE,112,1.2,2.0,52,0.00,,,0.00,Rainwise IP-100,2013-08-22 23:21:00,
2013-08-22 16:26:00,64.7,48.0,25.67,ESE,112,0.0,2.0,56,0.00,,,0.00,Rainwise IP-100,2013-08-22 23:26:00,
2013-08-22 16:31:00,64.7,48.0,25.66,ESE,112,0.0,2.0,56,0.00,,,0.00,Rainwise IP-100,2013-08-22 23:31:00,
2013-08-22 16:36:00,65.2,48.0,25.66,ESE,112,0.0,1.0,55,0.00,,,0.00,Rainwise IP-100,2013-08-22 23:36:00,
2013-08-22 16:41:00,66.0,48.0,25.67,East,90,0.0,5.0,53,0.00,,,0.00,Rainwise IP-100,2013-08-22 23:41:00,
2013-08-22 16:46:00,67.0,47.0,25.67,NE,45,0.0,3.0,49,0.00,,,0.00,Rainwise IP-100,2013-08-22 23:46:00,
2013-08-22 16:51:00,67.8,46.0,25.67,NNW,337,3.0,6.0,46,0.00,,,0.00,Rainwise IP-100,2013-08-22 23:51:00,
2013-08-22 16:56:00,68.5,47.0,25.67,NNW,337,4.0,5.0,45,0.00,,,0.00,Rainwise IP-100,2013-08-22 23:56:00,
2013-08-22 17:01:00,68.8,47.0,25.67,NNW,337,4.2,4.2,46,0.00,,,0.00,Rainwise IP-100,2013-08-23 00:01:00,
2013-08-22 17:06:00,68.8,47.0,25.67,NNW,337,5.1,6.0,45,0.00,,,0.00,Rainwise IP-100,2013-08-23 00:06:00,
2013-08-22 17:11:00,68.7,46.0,25.67,NNW,337,3.7,5.0,44,0.00,,,0.00,Rainwise IP-100,2013-08-23 00:11:00,
2013-08-22 17:16:00,68.7,47.0,25.67,WSW,247,0.0,4.0,45,0.00,,,0.00,Rainwise IP-100,2013-08-23 00:16:00,
2013-08-22 17:21:00,68.5,47.0,25.67,WNW,292,1.2,3.0,46,0.00,,,0.00,Rainwise IP-100,2013-08-23 00:21:00,
2013-08-22 17:26:00,68.4,47.0,25.67,NNW,337,0.0,3.0,45,0.00,,,0.00,Rainwise IP-100,2013-08-23 00:26:00,
2013-08-22 17:31:00,68.4,47.0,25.68,NNW,337,2.1,4.0,45,0.00,,,0.00,Rainwise IP-100,2013-08-23 00:31:00,
2013-08-22 17:36:00,68.3,47.0,25.67,North,360,1.9,4.0,46,0.00,,,0.00,Rainwise IP-100,2013-08-23 00:36:00,
2013-08-22 17:41:00,68.1,46.0,25.67,ENE,67,0.0,3.0,45,0.00,,,0.00,Rainwise IP-100,2013-08-23 00:41:00,
2013-08-22 17:46:00,67.8,46.0,25.68,ESE,112,0.0,2.0,45,0.00,,,0.00,Rainwise IP-100,2013-08-23 00:46:00,
2013-08-22 17:51:00,67.4,46.0,25.67,ESE,112,0.0,1.0,45,0.00,,,0.00,Rainwise IP-100,2013-08-23 00:51:00,
2013-08-22 17:56:00,67.1,46.0,25.67,ESE,112,0.0,0.0,47,0.00,,,0.00,Rainwise IP-100,2013-08-23 00:56:00,
2013-08-22 18:01:00,66.8,47.0,25.67,SSW,202,0.0,2.0,48,0.00,,,0.00,Rainwise IP-100,2013-08-23 01:01:00,
2013-08-22 18:06:00,66.4,47.0,25.67,SSW,202,0.0,0.0,50,0.00,,,0.00,Rainwise IP-100,2013-08-23 01:06:00,
2013-08-22 18:11:00,66.0,49.0,25.67,SSW,202,0.0,0.0,55,0.00,,,0.00,Rainwise IP-100,2013-08-23 01:11:00,
2013-08-22 18:16:00,65.7,50.0,25.68,SSW,202,0.0,0.0,57,0.00,,,0.00,Rainwise IP-100,2013-08-23 01:16:00,
2013-08-22 18:21:00,65.4,50.0,25.68,SSW,202,1.2,0.0,57,0.00,,,0.00,Rainwise IP-100,2013-08-23 01:21:00,
2013-08-22 18:26:00,65.0,50.0,25.67,SSW,202,0.0,1.0,60,0.00,,,0.00,Rainwise IP-100,2013-08-23 01:26:00,
2013-08-22 18:31:00,64.5,50.0,25.67,SSW,202,0.0,0.0,61,0.00,,,0.00,Rainwise IP-100,2013-08-23 01:31:00,
2013-08-22 18:36:00,64.4,50.0,25.67,SSW,202,0.0,0.0,60,0.00,,,0.00,Rainwise IP-100,2013-08-23 01:36:00,
2013-08-22 18:41:00,64.4,50.0,25.68,SSW,202,0.0,0.0,60,0.00,,,0.00,Rainwise IP-100,2013-08-23 01:41:00,
2013-08-22 18:46:00,64.3,50.0,25.68,SSW,202,2.1,2.1,61,0.00,,,0.00,Rainwise IP-100,2013-08-23 01:46:00,
2013-08-22 18:51:00,64.0,50.0,25.67,SSW,202,0.0,2.0,62,0.00,,,0.00,Rainwise IP-100,2013-08-23 01:51:00,
2013-08-22 18:56:00,63.6,50.0,25.68,SSW,202,0.0,0.0,63,0.00,,,0.00,Rainwise IP-100,2013-08-23 01:56:00,
2013-08-22 19:01:00,63.3,50.0,25.68,SSW,202,1.2,2.0,64,0.00,,,0.00,Rainwise IP-100,2013-08-23 02:01:00,
2013-08-22 19:06:00,63.0,50.0,25.67,SSW,202,0.0,1.0,64,0.00,,,0.00,Rainwise IP-100,2013-08-23 02:06:00,
2013-08-22 19:11:00,62.8,50.0,25.67,SSW,202,0.0,0.0,65,0.00,,,0.00,Rainwise IP-100,2013-08-23 02:11:00,
2013-08-22 19:16:00,62.3,50.0,25.67,SSW,202,0.0,0.0,65,0.00,,,0.00,Rainwise IP-100,2013-08-23 02:16:00,
2013-08-22 19:21:00,62.0,50.0,25.67,SSW,202,0.0,0.0,65,0.00,,,0.00,Rainwise IP-100,2013-08-23 02:21:00,
2013-08-22 19:26:00,61.7,50.0,25.67,SSE,157,0.0,2.0,66,0.00,,,0.00,Rainwise IP-100,2013-08-23 02:26:00,
2013-08-22 19:31:00,61.4,50.0,25.66,SSE,157,1.9,1.9,66,0.00,,,0.00,Rainwise IP-100,2013-08-23 02:31:00,
2013-08-22 19:36:00,61.2,50.0,25.66,SSE,157,0.0,2.0,66,0.00,,,0.00,Rainwise IP-100,2013-08-23 02:36:00,
2013-08-22 19:41:00,60.7,50.0,25.66,SSE,157,0.0,1.0,67,0.00,,,0.00,Rainwise IP-100,2013-08-23 02:41:00,
2013-08-22 19:46:00,60.1,50.0,25.67,SSE,157,0.0,1.0,69,0.00,,,0.00,Rainwise IP-100,2013-08-23 02:46:00,
2013-08-22 19:51:00,59.7,49.0,25.67,SSE,157,1.2,1.2,69,0.00,,,0.00,Rainwise IP-100,2013-08-23 02:51:00,
2013-08-22 19:56:00,59.5,49.0,25.67,SSE,157,0.0,1.0,68,0.00,,,0.00,Rainwise IP-100,2013-08-23 02:56:00,
2013-08-22 20:01:00,59.1,48.0,25.67,SSE,157,0.0,1.0,68,0.00,,,0.00,Rainwise IP-100,2013-08-23 03:01:00,
2013-08-22 20:06:00,58.7,48.0,25.67,SSE,157,0.0,1.0,68,0.00,,,0.00,Rainwise IP-100,2013-08-23 03:06:00,
2013-08-22 20:11:00,58.3,48.0,25.67,SSW,202,0.0,3.0,69,0.00,,,0.00,Rainwise IP-100,2013-08-23 03:11:00,
2013-08-22 20:16:00,58.0,48.0,25.67,SSE,157,0.0,2.0,70,0.00,,,0.00,Rainwise IP-100,2013-08-23 03:16:00,
2013-08-22 20:21:00,57.7,48.0,25.67,SSE,157,0.0,2.0,70,0.00,,,0.00,Rainwise IP-100,2013-08-23 03:21:00,
2013-08-22 20:26:00,57.5,48.0,25.67,SSE,157,0.0,0.0,70,0.00,,,0.00,Rainwise IP-100,2013-08-23 03:26:00,
2013-08-22 20:31:00,57.2,47.0,25.68,SSE,157,1.4,1.4,70,0.00,,,0.00,Rainwise IP-100,2013-08-23 03:31:00,
2013-08-22 20:36:00,57.0,47.0,25.68,SSE,157,0.0,1.0,71,0.00,,,0.00,Rainwise IP-100,2013-08-23 03:36:00,
2013-08-22 20:41:00,57.0,47.0,25.68,SSE,157,0.0,1.0,71,0.00,,,0.00,Rainwise IP-100,2013-08-23 03:41:00,
2013-08-22 20:46:00,56.9,47.0,25.68,South,180,0.0,1.0,71,0.00,,,0.00,Rainwise IP-100,2013-08-23 03:46:00,
2013-08-22 20:51:00,56.8,47.0,25.68,South,180,0.0,0.0,71,0.00,,,0.00,Rainwise IP-100,2013-08-23 03:51:00,
2013-08-22 20:56:00,56.6,47.0,25.68,South,180,0.0,0.0,72,0.00,,,0.00,Rainwise IP-100,2013-08-23 03:56:00,
2013-08-22 21:01:00,56.5,47.0,25.68,South,180,0.0,0.0,72,0.00,,,0.00,Rainwise IP-100,2013-08-23 04:01:00,
2013-08-22 21:06:00,56.4,47.0,25.68,SSE,157,0.0,2.0,72,0.00,,,0.00,Rainwise IP-100,2013-08-23 04:06:00,
2013-08-22 21:11:00,56.3,47.0,25.67,SSE,157,1.6,2.0,72,0.00,,,0.00,Rainwise IP-100,2013-08-23 04:11:00,
2013-08-22 21:16:00,56.3,47.0,25.68,SSE,157,0.0,1.0,72,0.00,,,0.00,Rainwise IP-100,2013-08-23 04:16:00,
2013-08-22 21:21:00,56.2,47.0,25.68,SSE,157,0.0,2.0,72,0.00,,,0.00,Rainwise IP-100,2013-08-23 04:21:00,
2013-08-22 21:26:00,56.0,47.0,25.68,SSE,157,0.0,1.0,72,0.00,,,0.00,Rainwise IP-100,2013-08-23 04:26:00,
2013-08-22 21:31:00,56.0,47.0,25.68,SSE,157,1.2,2.0,72,0.00,,,0.00,Rainwise IP-100,2013-08-23 04:31:00,
2013-08-22 21:36:00,56.1,47.0,25.68,SSE,157,0.0,2.0,72,0.00,,,0.00,Rainwise IP-100,2013-08-23 04:36:00,
2013-08-22 21:41:00,56.0,47.0,25.68,SSE,157,0.0,1.0,72,0.00,,,0.00,Rainwise IP-100,2013-08-23 04:41:00,
2013-08-22 21:46:00,55.8,47.0,25.68,SSE,157,1.4,2.0,72,0.00,,,0.00,Rainwise IP-100,2013-08-23 04:46:00,
2013-08-22 21:51:00,55.6,47.0,25.68,SSE,157,0.0,2.0,72,0.00,,,0.00,Rainwise IP-100,2013-08-23 04:51:00,
2013-08-22 21:56:00,55.5,47.0,25.68,SSE,157,0.0,0.0,73,0.00,,,0.00,Rainwise IP-100,2013-08-23 04:56:00,
2013-08-22 22:01:00,55.2,47.0,25.67,SSE,157,0.0,2.0,73,0.00,,,0.00,Rainwise IP-100,2013-08-23 05:01:00,
2013-08-22 22:06:00,54.8,46.0,25.67,SSE,157,0.0,1.0,73,0.00,,,0.00,Rainwise IP-100,2013-08-23 05:06:00,
2013-08-22 22:11:00,54.6,47.0,25.67,SSE,157,0.0,0.0,74,0.00,,,0.00,Rainwise IP-100,2013-08-23 05:11:00,
2013-08-22 22:16:00,54.4,47.0,25.67,SSE,157,0.0,1.0,75,0.00,,,0.00,Rainwise IP-100,2013-08-23 05:16:00,
2013-08-22 22:21:00,54.2,47.0,25.68,SSE,157,0.0,1.0,76,0.00,,,0.00,Rainwise IP-100,2013-08-23 05:21:00,
2013-08-22 22:26:00,54.2,47.0,25.67,SSE,157,0.0,2.0,76,0.00,,,0.00,Rainwise IP-100,2013-08-23 05:26:00,
2013-08-22 22:31:00,54.4,47.0,25.67,SSW,202,0.0,2.0,76,0.00,,,0.00,Rainwise IP-100,2013-08-23 05:31:00,
2013-08-22 22:36:00,54.4,47.0,25.67,SSE,157,1.6,2.0,76,0.00,,,0.00,Rainwise IP-100,2013-08-23 05:36:00,
2013-08-22 22:41:00,54.5,47.0,25.67,SSE,157,1.4,2.0,76,0.00,,,0.00,Rainwise IP-100,2013-08-23 05:41:00,
2013-08-22 22:46:00,54.8,47.0,25.67,SSE,157,0.0,2.0,76,0.00,,,0.00,Rainwise IP-100,2013-08-23 05:46:00,
2013-08-22 22:51:00,55.0,47.0,25.67,SSE,157,0.0,1.0,75,0.00,,,0.00,Rainwise IP-100,2013-08-23 05:51:00,
2013-08-22 22:56:00,54.9,47.0,25.67,SSE,157,0.0,1.0,76,0.00,,,0.00,Rainwise IP-100,2013-08-23 05:56:00,
2013-08-22 23:01:00,54.8,47.0,25.66,SSE,157,1.6,1.6,76,0.00,,,0.00,Rainwise IP-100,2013-08-23 06:01:00,
2013-08-22 23:06:00,55.0,47.0,25.66,SSE,157,1.4,2.0,76,0.00,,,0.00,Rainwise IP-100,2013-08-23 06:06:00,
2013-08-22 23:11:00,55.1,47.0,25.66,SSE,157,0.0,1.0,75,0.00,,,0.00,Rainwise IP-100,2013-08-23 06:11:00,
2013-08-22 23:16:00,55.0,47.0,25.66,SSE,157,0.0,1.0,75,0.00,,,0.00,Rainwise IP-100,2013-08-23 06:16:00,
2013-08-22 23:21:00,55.1,47.0,25.66,SSE,157,0.0,1.0,76,0.00,,,0.00,Rainwise IP-100,2013-08-23 06:21:00,
2013-08-22 23:26:00,55.1,47.0,25.66,SSE,157,0.0,1.0,76,0.00,,,0.00,Rainwise IP-100,2013-08-23 06:26:00,
2013-08-22 23:31:00,55.0,47.0,25.66,SSE,157,1.2,1.2,76,0.00,,,0.00,Rainwise IP-100,2013-08-23 06:31:00,
2013-08-22 23:36:00,55.1,47.0,25.66,SSE,157,0.0,1.0,76,0.00,,,0.00,Rainwise IP-100,2013-08-23 06:36:00,
2013-08-22 23:41:00,55.2,47.0,25.66,SSE,157,0.0,0.0,76,0.00,,,0.00,Rainwise IP-100,2013-08-23 06:41:00,
2013-08-22 23:46:00,55.2,47.0,25.65,SSE,157,0.0,0.0,76,0.00,,,0.00,Rainwise IP-100,2013-08-23 06:46:00,
2013-08-22 23:51:00,55.0,47.0,25.65,SSE,157,0.0,0.0,76,0.00,,,0.00,Rainwise IP-100,2013-08-23 06:51:00,
2013-08-22 23:56:00,55.0,47.0,25.65,SSE,157,0.0,1.0,75,0.00,,,0.00,Rainwise IP-100,2013-08-23 06:56:00,